User: anonymous   Login
Location: Columbia
(38.9520°N, 92.3340°W)
Time: 03:37:06
(UTC-05:00)
Language:

Cosmos 1633 - Orbit

View from above orbital plane
View from above orbital plane
View from above satellite
View from above satellite

Ground track
Ground track

The orbit data is extracted from the following two-line orbital elements,

1 15592U 85020A   15214.68591951  .00004182  00000-0  16853-3 0  9995
2 15592 082.5397 283.3832 0016810 074.2959 040.9664 15.24428136659857
Epoch (UTC): 02 August 2015 16:27:43
Eccentricity: 0.0016810
inclination: 82.5397°
perigee height: 481 km
apogee height: 504 km
right ascension of ascending node: 283.3832°
argument of perigee: 74.2959°
revolutions per day: 15.24428136
mean anomaly at epoch: 40.9664°
orbit number at epoch: 65985

The dashed part of the orbit path shows where the satellite is in the earth's shadow,  

DLR